• In Austria
  • List of Countries
  • For 7 days
  • Water Temperature
  • Satellite Maps
  • Weather Map
  • News
  • Weather Widgets
  • user-avatar
    Login

    Hourly Weather Mzuzu

    Today, 24 May, Thursday

    Time Temperature Precipitation Wind Pressure Humidity
    00:00 +30°C° 0.2 mm 3 mps 698 mmHg 47%
    01:00 +30°C° 0.2 mm 3 mps 698 mmHg 50%
    02:00 +29°C° 0.2 mm 3 mps 698 mmHg 52%
    03:00 +29°C° 0 mm 3 mps 698 mmHg 53%
    04:00 +29°C° 0 mm 4 mps 698 mmHg 54%
    05:00 +28°C° 0 mm 4 mps 698 mmHg 56%
    06:00 +29°C° 0 mm 4 mps 698 mmHg 54%
    07:00 +29°C° 0 mm 4 mps 699 mmHg 53%
    08:00 +30°C° 0 mm 4 mps 699 mmHg 52%
    09:00 +32°C° 0 mm 4 mps 699 mmHg 48%
    10:00 +33°C° 0 mm 4 mps 699 mmHg 44%
    11:00 +35°C° 0 mm 4 mps 699 mmHg 41%
    12:00 +35°C° 0 mm 4 mps 699 mmHg 39%
    13:00 +36°C° 0 mm 4 mps 698 mmHg 37%
    14:00 +36°C° 0 mm 4 mps 698 mmHg 35%
    15:00 +36°C° 0 mm 4 mps 697 mmHg 36%
    16:00 +35°C° 0 mm 4 mps 697 mmHg 37%
    17:00 +35°C° 0 mm 4 mps 696 mmHg 37%
    18:00 +34°C° 0 mm 3 mps 696 mmHg 40%
    19:00 +33°C° 0 mm 3 mps 696 mmHg 42%
    20:00 +31°C° 0 mm 3 mps 696 mmHg 44%
    21:00 +31°C° 0.1 mm 2 mps 697 mmHg 46%
    22:00 +30°C° 0.1 mm 2 mps 697 mmHg 48%
    23:00 +30°C° 0.1 mm 2 mps 697 mmHg 49%

    Tomorrow, 25 May, Friday

    Time Temperature Precipitation Wind Pressure Humidity
    00:00 +29°C° 0.1 mm 2 mps 697 mmHg 51%
    01:00 +29°C° 0.1 mm 2 mps 697 mmHg 52%
    02:00 +28°C° 0.1 mm 2 mps 696 mmHg 54%
    03:00 +28°C° 0.1 mm 3 mps 696 mmHg 55%
    04:00 +27°C° 0.1 mm 3 mps 696 mmHg 57%
    05:00 +27°C° 0.1 mm 3 mps 696 mmHg 58%
    06:00 +28°C° 0.6 mm 3 mps 697 mmHg 56%
    07:00 +29°C° 0.6 mm 4 mps 698 mmHg 53%
    08:00 +30°C° 0.6 mm 4 mps 698 mmHg 50%
    09:00 +32°C° 0.2 mm 4 mps 698 mmHg 46%
    10:00 +34°C° 0.2 mm 4 mps 699 mmHg 42%
    11:00 +36°C° 0.2 mm 4 mps 699 mmHg 37%
    12:00 +37°C° 0 mm 4 mps 698 mmHg 35%
    13:00 +38°C° 0 mm 3 mps 697 mmHg 32%
    14:00 +38°C° 0 mm 3 mps 696 mmHg 29%
    15:00 +38°C° 0 mm 2 mps 696 mmHg 30%
    16:00 +37°C° 0 mm 2 mps 696 mmHg 31%
    17:00 +37°C° 0 mm 2 mps 696 mmHg 31%
    18:00 +36°C° 0 mm 2 mps 696 mmHg 33%
    19:00 +36°C° 0 mm 2 mps 696 mmHg 35%
    20:00 +35°C° 0 mm 3 mps 696 mmHg 37%
    21:00 +34°C° 0 mm 3 mps 696 mmHg 40%
    22:00 +33°C° 0 mm 4 mps 696 mmHg 43%
    23:00 +32°C° 0 mm 4 mps 696 mmHg 46%

    Day after tomorrow, 26 May, Saturday

    Time Temperature Precipitation Wind Pressure Humidity
    00:00 +32°C° 0 mm 4 mps 696 mmHg 50%
    01:00 +30°C° 0 mm 4 mps 696 mmHg 54%
    02:00 +29°C° 0 mm 4 mps 695 mmHg 58%
    03:00 +28°C° 0.5 mm 4 mps 696 mmHg 60%
    04:00 +28°C° 0.5 mm 4 mps 696 mmHg 63%
    05:00 +27°C° 0.5 mm 3 mps 696 mmHg 66%
    06:00 +28°C° 1.3 mm 3 mps 697 mmHg 65%
    07:00 +28°C° 1.3 mm 2 mps 698 mmHg 64%
    08:00 +29°C° 1.3 mm 2 mps 699 mmHg 63%
    09:00 +30°C° 0 mm 3 mps 698 mmHg 57%
    10:00 +33°C° 0 mm 3 mps 698 mmHg 50%
    11:00 +35°C° 0 mm 4 mps 698 mmHg 44%
    12:00 +36°C° 0 mm 4 mps 698 mmHg 41%
    13:00 +36°C° 0 mm 3 mps 697 mmHg 38%
    14:00 +37°C° 0 mm 3 mps 696 mmHg 35%
    15:00 +37°C° 0 mm 3 mps 696 mmHg 35%
    16:00 +37°C° 0 mm 2 mps 696 mmHg 35%
    17:00 +36°C° 0 mm 2 mps 696 mmHg 36%
    18:00 +35°C° 0 mm 2 mps 696 mmHg 39%
    19:00 +35°C° 0 mm 2 mps 696 mmHg 42%
    20:00 +34°C° 0 mm 2 mps 697 mmHg 45%
    21:00 +32°C° 0.3 mm 2 mps 697 mmHg 48%
    22:00 +31°C° 0.3 mm 2 mps 697 mmHg 50%
    23:00 +30°C° 0.3 mm 2 mps 697 mmHg 53%

    27 May, Sunday

    Time Temperature Precipitation Wind Pressure Humidity
    00:00 +30°C° 0.3 mm 2 mps 696 mmHg 54%
    01:00 +30°C° 0.3 mm 2 mps 696 mmHg 55%
    02:00 +29°C° 0.3 mm 2 mps 695 mmHg 57%
    03:00 +29°C° 0 mm 2 mps 696 mmHg 57%
    04:00 +29°C° 0 mm 2 mps 696 mmHg 57%
    05:00 +28°C° 0 mm 2 mps 696 mmHg 58%
    06:00 +30°C° 0 mm 3 mps 697 mmHg 54%
    07:00 +31°C° 0 mm 3 mps 698 mmHg 50%
    08:00 +33°C° 0 mm 4 mps 698 mmHg 46%
    09:00 +35°C° 0 mm 4 mps 698 mmHg 42%
    10:00 +36°C° 0 mm 4 mps 698 mmHg 38%
    11:00 +38°C° 0 mm 4 mps 698 mmHg 33%
    12:00 +38°C° 0 mm 3 mps 697 mmHg 32%
    13:00 +39°C° 0 mm 3 mps 697 mmHg 31%
    14:00 +39°C° 0 mm 2 mps 696 mmHg 29%
    15:00 +38°C° 0 mm 2 mps 696 mmHg 30%
    16:00 +38°C° 0 mm 2 mps 696 mmHg 32%
    17:00 +37°C° 0 mm 2 mps 696 mmHg 33%
    18:00 +36°C° 0 mm 2 mps 696 mmHg 35%
    19:00 +36°C° 0 mm 2 mps 696 mmHg 37%
    20:00 +35°C° 0 mm 2 mps 697 mmHg 40%
    21:00 +34°C° 0 mm 3 mps 696 mmHg 42%
    22:00 +34°C° 0 mm 3 mps 696 mmHg 44%
    23:00 +33°C° 0 mm 3 mps 696 mmHg 45%

    28 May, Monday

    Time Temperature Precipitation Wind Pressure Humidity
    00:00 +31°C° 0.2 mm 3 mps 696 mmHg 48%
    01:00 +31°C° 0.2 mm 3 mps 696 mmHg 50%
    02:00 +30°C° 0.2 mm 3 mps 696 mmHg 53%
    03:00 +29°C° 1.3 mm 2 mps 697 mmHg 57%
    04:00 +29°C° 1.3 mm 2 mps 697 mmHg 61%
    05:00 +28°C° 1.3 mm 2 mps 698 mmHg 65%
    06:00 +28°C° 1.8 mm 2 mps 698 mmHg 65%
    07:00 +28°C° 1.8 mm 2 mps 699 mmHg 65%
    08:00 +28°C° 1.8 mm 2 mps 700 mmHg 66%
    09:00 +29°C° 1 mm 3 mps 699 mmHg 64%
    10:00 +29°C° 1 mm 4 mps 699 mmHg 63%
    11:00 +29°C° 1 mm 5 mps 699 mmHg 62%
    12:00 +30°C° 0 mm 5 mps 698 mmHg 61%
    13:00 +30°C° 0 mm 5 mps 698 mmHg 59%
    14:00 +30°C° 0 mm 5 mps 697 mmHg 58%
    15:00 +30°C° 0 mm 4 mps 697 mmHg 58%
    16:00 +30°C° 0 mm 4 mps 697 mmHg 58%
    17:00 +30°C° 0 mm 3 mps 697 mmHg 59%
    18:00 +29°C° 0 mm 3 mps 697 mmHg 61%
    19:00 +29°C° 0 mm 3 mps 697 mmHg 63%
    20:00 +28°C° 0 mm 2 mps 697 mmHg 66%
    21:00 +28°C° 0.1 mm 2 mps 698 mmHg 67%
    22:00 +28°C° 0.1 mm 2 mps 698 mmHg 67%
    23:00 +28°C° 0.1 mm 2 mps 698 mmHg 68%

    29 May, Tuesday

    Time Temperature Precipitation Wind Pressure Humidity
    00:00 +27°C° 0.3 mm 2 mps 698 mmHg 69%
    01:00 +27°C° 0.2 mm 2 mps 697 mmHg 71%
    02:00 +27°C° 0.2 mm 2 mps 697 mmHg 72%
    03:00 +27°C° 0.4 mm 2 mps 697 mmHg 74%
    04:00 +26°C° 0.4 mm 2 mps 698 mmHg 75%
    05:00 +26°C° 0.4 mm 3 mps 698 mmHg 77%
    06:00 +26°C° 0.1 mm 3 mps 698 mmHg 75%
    07:00 +27°C° 0.1 mm 3 mps 699 mmHg 72%
    08:00 +27°C° 0.1 mm 3 mps 699 mmHg 70%
    09:00 +28°C° 0 mm 4 mps 699 mmHg 66%
    10:00 +29°C° 0 mm 4 mps 699 mmHg 61%
    11:00 +30°C° 0 mm 4 mps 699 mmHg 57%
    12:00 +32°C° 0 mm 4 mps 698 mmHg 53%
    13:00 +33°C° 0 mm 4 mps 698 mmHg 49%
    14:00 +34°C° 0 mm 4 mps 698 mmHg 46%
    15:00 +34°C° 0 mm 4 mps 698 mmHg 46%
    16:00 +34°C° 0 mm 4 mps 698 mmHg 47%
    17:00 +33°C° 0 mm 3 mps 698 mmHg 48%
    18:00 +31°C° 0 mm 3 mps 698 mmHg 51%
    19:00 +30°C° 0 mm 3 mps 698 mmHg 54%
    20:00 +29°C° 0 mm 3 mps 698 mmHg 57%
    21:00 +29°C° 0.1 mm 3 mps 698 mmHg 58%
    22:00 +28°C° 0.1 mm 3 mps 698 mmHg 60%
    23:00 +28°C° 0.1 mm 3 mps 698 mmHg 62%
    Show more